User: anonymous   Login
Location: Dompnac
(44.5644°N, 4.1026°E)
Time: 02:56:09
(UTC+00:00)
Language:

Okean 2 - Orbit

View from above orbital plane
View from above orbital plane
View from above satellite
View from above satellite

Ground track
Ground track

The orbit data is extracted from the following two-line orbital elements,

1 20510U 90018A   21127.91584623  .00000244  00000-0  17531-4 0  9998
2 20510  82.5164 246.4221 0011211 214.4409 285.3284 14.99680259673200
Epoch (UTC): 07 May 2021 21:58:49
Eccentricity: 0.0011211
inclination: 82.5164°
perigee height: 560 km
apogee height: 575 km
right ascension of ascending node: 246.4221°
argument of perigee: 214.4409°
revolutions per day: 14.99680259
mean anomaly at epoch: 285.3284°
orbit number at epoch: 67320

The dashed part of the orbit path shows where the satellite is in the earth's shadow,  

DLR